This is the latest recevied weather packets stored in our database for station/object K2CCS. If no packets are shown the sender has not sent any weather packets the latest 10 day(s).
| Time | Temp. | Humidity | Pressure | Rain* | Wind** | Luminosity | Snow |
|---|---|---|---|---|---|---|---|
| 1777989971 | 17.78° C | 64% | 1011.1 hPa | 0 mm | - | 106 W/m² | - |
| 1777989668 | 17.78° C | 64% | 1011.3 hPa | 0 mm | - | 141 W/m² | - |
| 1777989364 | 17.22° C | 63% | 1011.2 hPa | 0 mm | - | 161 W/m² | - |
| 1777989061 | 17.78° C | 64% | 1011.3 hPa | 0 mm | - | 123 W/m² | - |
| 1777988756 | 17.78° C | 65% | 1011.3 hPa | 0 mm | - | 159 W/m² | - |
| 1777988454 | 17.22° C | 68% | 1011.2 hPa | 0 mm | - | 160 W/m² | - |
| 1777988150 | 16.67° C | 68% | 1011.3 hPa | 0 mm | - | 126 W/m² | - |
| 1777987846 | 16.67° C | 70% | 1011.2 hPa | 0 mm | - | 93 W/m² | - |
| 1777987543 | 16.67° C | 69% | 1011.3 hPa | 0 mm | - | 75 W/m² | - |
| 1777987241 | 17.22° C | 67% | 1011.2 hPa | 0 mm | - | 65 W/m² | - |
| 1777986937 | 17.22° C | 66% | 1011.3 hPa | 0 mm | - | 78 W/m² | - |
| 1777986636 | 16.67° C | 66% | 1011.4 hPa | 0 mm | - | 138 W/m² | - |
| 1777986333 | 16.67° C | 66% | 1011.2 hPa | 0 mm | - | 125 W/m² | - |
| 1777986032 | 16.67° C | 66% | 1011.2 hPa | 0 mm | - | 94 W/m² | - |
| 1777985728 | 16.67° C | 66% | 1011.2 hPa | 0 mm | - | 165 W/m² | - |
| 1777985425 | 16.67° C | 67% | 1011.3 hPa | 0 mm | - | 84 W/m² | - |
| 1777985121 | 16.67° C | 66% | 1011.3 hPa | 0 mm | - | 111 W/m² | - |
| 1777984817 | 16.67° C | 66% | 1011.2 hPa | 0 mm | - | 66 W/m² | - |
| 1777984514 | 16.67° C | 66% | 1011.2 hPa | 0 mm | - | 69 W/m² | - |
| 1777984210 | 16.11° C | 66% | 1011.3 hPa | 0 mm | - | 95 W/m² | - |
| 1777983908 | 16.11° C | 67% | 1011.2 hPa | 0 mm | - | 59 W/m² | - |
| 1777983604 | 16.11° C | 66% | 1011.2 hPa | 0 mm | - | 64 W/m² | - |
| 1777983301 | 16.11° C | 66% | 1011.2 hPa | 0 mm | - | 58 W/m² | - |
| 1777982997 | 15.56° C | 67% | 1011.3 hPa | 0 mm | - | 62 W/m² | - |
| 1777982693 | 15.56° C | 68% | 1011.3 hPa | 0 mm | - | 66 W/m² | - |
* Rain latest hour (hover to see other rain measurements)
** Current wind speed in m/s (hover to see current wind gust speed)